Regional Weather Roundup
Issued by NWS

Home | Current Version | Previous Version | Text Only | Print | Product List | Glossary On
Versions: 1 2 3 4 5 6 7 8 9 10 11 12 13 14 15 16 17 18 19 20 21 22 23 24 25 26 27 28 29 30 31 32 33 34 35 36 37 38 39 40 41 42 43 44 45 46 47 48 49 50
000
ASUS43 KOAX 050810
RWRNE

WEATHER ROUNDUP FOR NEBRASKA
NATIONAL WEATHER SERVICE OMAHA NE
300 AM CDT SUN JUL 05 2015

NOTES: SATELLITE DATA IS BEING USED TO AUGMENT CLOUD COVER ABOVE
       12000 FEET.
       "FAIR" INDICATES FEW OR NO CLOUDS BELOW 12,000 FEET WITH NO
       SIGNIFICANT WEATHER AND/OR OBSTRUCTIONS TO VISIBILITY.

  * THESE STATIONS DO NOT REPORT WEATHER SUCH AS RAIN...SNOW OR FOG.

NEZ001>004-019>022-054>056-050900-
NEBRASKA PANHANDLE

CITY           SKY/WX    TMP DP  RH WIND       PRES   REMARKS
SCOTTSBLUFF    MOCLDY    67  62  84 E9        29.87S
ALLIANCE       MOCLDY    72  64  76 E9        29.86F
CHADRON        CLEAR     69  62  78 CALM      29.82F
KIMBALL          N/A    N/A N/A N/A MISG        N/A
SIDNEY         MOCLDY    66  60  81 W6        29.91F
$$

NEZ057>060-069>072-079>082-050900-
SOUTHWEST NEBRASKA

CITY           SKY/WX    TMP DP  RH WIND       PRES   REMARKS
NORTH PLATTE   PTCLDY    74  63  68 SE10      29.85F
IMPERIAL       CLEAR     74  61  63 S8        29.88S
LEXINGTON      MOCLDY    75  64  69 S14       29.87F
MCCOOK         MOCLDY    75  64  68 SE9       29.86F
OGALLALA       CLEAR     72  63  73 CALM      29.87F
$$

NEZ005>010-023>029-035>040-094-050900-
NORTH CENTRAL NEBRASKA

CITY           SKY/WX    TMP DP  RH WIND       PRES   REMARKS
VALENTINE      MOCLDY    76  52  43 SW16      29.78F
AINSWORTH      CLOUDY    76  65  67 S14G22    29.83F
BROKEN BOW     CLOUDY    74  63  68 SE8       29.88F
O`NEILL        PTCLDY    72  64  78 S10       29.85F
ORD            CLOUDY    72  62  71 SE6       29.86F
THEDFORD       CLOUDY    77  65  67 N15G24    29.92R
$$

NEZ041-046>049-061>064-073>077-083>087-050900-
SOUTH CENTRAL NEBRASKA

CITY           SKY/WX    TMP DP  RH WIND       PRES   REMARKS
GRAND ISLAND   MOCLDY    72  63  73 S15G26    29.89F
AURORA         MOCLDY    71  65  82 S13       29.90F
HASTINGS       CLOUDY    72  63  73 S13       29.90F
HEBRON         MOCLDY    72  63  72 SE7       29.92F
HOLDREGE       CLOUDY    73  62  67 S13       29.89F
KEARNEY *      CLOUDY    72  61  68 S16       29.88F
YORK           PTCLDY    70  64  83 S12G22    29.92F
$$

NEZ011>018-030>034-042>045-050900-
NORTHEAST NEBRASKA

CITY           SKY/WX    TMP DP  RH WIND       PRES   REMARKS
NORFOLK        MOCLDY    70  64  81 S13G22    29.88F
ALBION         PTCLDY    68  63  83 SE8       29.89F
BLAIR          MOCLDY    69  60  72 S10       29.93F
COLUMBUS *     PTCLDY    70  61  73 S10       29.88F
FREMONT        CLOUDY    71  63  76 SE9       29.93S
TEKAMAH        MOCLDY    67  63  87 SE7       29.92F
WAYNE          CLOUDY    68  65  88 S10       29.90F
$$

NEZ050>053-065>068-078-088>093-050900-
SOUTHEAST NEBRASKA

CITY           SKY/WX    TMP DP  RH WIND       PRES   REMARKS
LINCOLN        PTCLDY    70  64  81 S12       29.92F
OMAHA EPPLEY   MOCLDY    69  62  78 S9        29.93F
BEATRICE       PTCLDY    70  64  81 S12       29.95R
FALLS CITY     CLEAR     67  63  87 SE8       29.95F
NEBRASKA CITY  CLEAR     67  61  79 S9        29.95F
PLATTSMOUTH    PTCLDY    68  61  78 SE9       29.94F
$$

NEZ044-045-051>053-067-050900-
OMAHA AREA

CITY           SKY/WX    TMP DP  RH WIND       PRES   REMARKS
OMAHA EPPLEY   MOCLDY    69  62  78 S9        29.93F
BLAIR          MOCLDY    69  60  72 S10       29.93F
FREMONT        CLOUDY    71  63  76 SE9       29.93S
MILLARD        MOCLDY    69  63  81 SE5       29.93F
OFFUTT AFB     PTCLDY    65  61  89 E8        29.93F
PLATTSMOUTH    PTCLDY    68  61  78 SE9       29.94F
WAHOO          FAIR      68  64  88 SE7       29.93S
$$


USA.gov is the U.S. government's official web portal to all federal, state and local government web resources and services.